Reecon Whale — 9HA2885 — position and weather

sailwx.info

Track history (hours):
 
Tides and Currents Weather Stations Pressure Air Temp Water Temp Dewpoint Dewpoint Depression Visibility Wind Speed Wind Dir Waves Ship Positions

Reecon Whale

Last reported at 2014-Oct-26 05:04 UTC. Time now 2014-Oct-26 09:32 UTC.
Position N 37°18' W 001°02'.

Length 145 m; draft 8.4 m.

Type: Ship. MMSI: 256579000.

Date/timePositionNaut miles runAvg speedWind from/ knotsBaromVisibWave heightAir tempDewpointWater temp
2014-Oct-26 05:04N 37°18' W 001°02'713.2
2014-Oct-26 04:31N 37°22' W 000°55'1313.5
2014-Oct-26 03:33N 37°31' W 000°43'1313.2
2014-Oct-26 02:33N 37°41' W 000°32'1313.0
2014-Oct-26 01:33N 37°52' W 000°23'1313.0
2014-Oct-26 00:33N 38°01' W 000°11'1413.2
2014-Oct-25 23:31N 38°12' W 000°01'1212.5
2014-Oct-25 22:33N 38°23' E 000°07'1312.5
2014-Oct-25 21:30N 38°34' E 000°15'1212.6
2014-Oct-25 20:33N 38°44' E 000°24'2812.1
2014-Oct-25 18:16N 39°09' E 000°08'811.8
2014-Oct-25 17:33N 39°16' E 000°03'1211.8
2014-Oct-25 16:33N 39°27' W 000°03'1211.7
2014-Oct-25 15:33N 39°37' W 000°11'3 0.3
2014-Oct-25 07:29N 39°39' W 000°13'0 0.0
2014-Oct-25 03:29N 39°39' W 000°13'0 0.0
2014-Oct-25 01:23N 39°39' W 000°13'0 0.0
2014-Oct-25 00:29N 39°39' W 000°13'0 0.0
2014-Oct-24 23:29N 39°39' W 000°13'0 0.0
2014-Oct-24 15:17N 39°39' W 000°13'0 0.0
2014-Oct-24 14:23N 39°39' W 000°13'0 0.0
2014-Oct-24 13:05N 39°39' W 000°13'0 0.0
2014-Oct-24 12:26N 39°39' W 000°13'0 0.0
2014-Oct-24 01:29N 39°39' W 000°13'4 4.6
2014-Oct-24 00:33N 39°39' W 000°07'1512.5
2014-Oct-23 23:21N 39°48' E 000°09'6911.9
2014-Oct-23 17:33N 40°44' E 001°01'1412.4
2014-Oct-23 16:27N 40°57' E 001°09'9 9.2
2014-Oct-23 15:27N 41°06' E 001°13'178 4.3
2014-Oct-21 22:16N 38°15' E 000°05'1014.1
2014-Oct-21 21:33N 38°07' W 000°02'1414.4
2014-Oct-21 20:33N 37°55' W 000°12'1414.5
2014-Oct-21 19:33N 37°43' W 000°22'1414.4
2014-Oct-21 18:33N 37°31' W 000°33'1413.7
2014-Oct-21 17:33N 37°22' W 000°46'7 6.7
2014-Oct-21 16:34N 37°18' W 000°52'8 8.2
2014-Oct-21 15:33N 37°12' W 001°00'1413.7
2014-Oct-21 14:33N 37°03' W 001°13'1613.2
2014-Oct-21 13:20N 36°53' W 001°28'1013.2
2014-Oct-21 12:33N 36°45' W 001°37'17712.2
2014-Oct-20 22:09N 36°02' W 005°10'712.0
2014-Oct-20 21:34N 36°03' W 005°18'9 9.1
2014-Oct-20 20:33N 36°10' W 005°24'0 0.2
2014-Oct-20 19:31N 36°10' W 005°25'0 0.0
2014-Oct-20 13:07N 36°10' W 005°25'0 0.0
2014-Oct-20 10:19N 36°10' W 005°25'0 0.0
2014-Oct-20 09:31N 36°10' W 005°25'3 1.1
2014-Oct-20 07:15N 36°08' W 005°26'0 0.0
2014-Oct-20 06:15N 36°08' W 005°26'0 0.0
2014-Oct-20 05:33N 36°08' W 005°26'0 0.0
2014-Oct-20 04:27N 36°08' W 005°26'0 0.0
2014-Oct-20 03:27N 36°08' W 005°26'0 0.0
2014-Oct-20 02:24N 36°08' W 005°26'0 0.0
2014-Oct-20 00:24N 36°08' W 005°26'0 0.0
2014-Oct-19 23:33N 36°08' W 005°26'0 0.0
2014-Oct-19 22:27N 36°08' W 005°26'0 0.0
2014-Oct-19 21:30N 36°08' W 005°26'0 0.0
2014-Oct-19 20:33N 36°08' W 005°26'0 0.0
2014-Oct-19 19:30N 36°08' W 005°26'0 0.2
2014-Oct-19 18:33N 36°08' W 005°26'7 6.7
2014-Oct-19 17:33N 36°02' W 005°23'8512.0
2014-Oct-19 10:27N 36°05' W 007°08'1112.3
2014-Oct-19 09:33N 36°09' W 007°21'1212.0
2014-Oct-19 08:33N 36°12' W 007°35'1212.3
2014-Oct-19 07:33N 36°15' W 007°50'1413.2
2014-Oct-19 06:32N 36°19' W 008°06'1413.7
2014-Oct-19 05:31N 36°22' W 008°23'1413.8
2014-Oct-19 04:32N 36°26' W 008°39'1413.9
2014-Oct-19 03:33N 36°29' W 008°56'1514.0
2014-Oct-19 02:30N 36°33' W 009°13'1313.9
2014-Oct-19 01:33N 36°41' W 009°26'1814.0
2014-Oct-19 00:16N 36°58' W 009°36'1013.8
2014-Oct-18 23:33N 37°07' W 009°35'1413.5
2014-Oct-18 22:32N 37°21' W 009°33'1312.9
2014-Oct-18 21:33N 37°33' W 009°31'1212.5
2014-Oct-18 20:33N 37°46' W 009°30'1211.7
2014-Oct-18 19:33N 37°58' W 009°29'1212.0
2014-Oct-18 18:33N 38°10' W 009°26'1212.2
2014-Oct-18 17:33N 38°22' W 009°25'1211.7
2014-Oct-18 16:33N 38°33' W 009°24'13 9.4
2014-Oct-18 15:08N 38°42' W 009°10'0 0.0
2014-Oct-17 08:29N 38°42' W 009°10'5 5.3
2014-Oct-17 07:32N 38°41' W 009°16'60 9.7
2014-Oct-17 01:19N 39°39' W 009°39'  
Track history (hours):
 
Tides and Currents Weather Stations Pressure Air Temp Water Temp Dewpoint Dewpoint Depression Visibility Wind Speed Wind Dir Waves Ship Positions

Reecon Whale

Last reported at 2014-Oct-26 05:04 UTC. Time now 2014-Oct-26 09:32 UTC.
Position N 37°18' W 001°02'.

Length 145 m; draft 8.4 m.

Type: Ship. MMSI: 256579000.

Date/timePositionNaut miles runAvg speedWind from/ knotsBaromVisibWave heightAir tempDewpointWater temp
2014-Oct-26 05:04N 37°18' W 001°02'713.2
2014-Oct-26 04:31N 37°22' W 000°55'1313.5
2014-Oct-26 03:33N 37°31' W 000°43'1313.2
2014-Oct-26 02:33N 37°41' W 000°32'1313.0
2014-Oct-26 01:33N 37°52' W 000°23'1313.0
2014-Oct-26 00:33N 38°01' W 000°11'1413.2
2014-Oct-25 23:31N 38°12' W 000°01'1212.5
2014-Oct-25 22:33N 38°23' E 000°07'1312.5
2014-Oct-25 21:30N 38°34' E 000°15'1212.6
2014-Oct-25 20:33N 38°44' E 000°24'2812.1
2014-Oct-25 18:16N 39°09' E 000°08'811.8
2014-Oct-25 17:33N 39°16' E 000°03'1211.8
2014-Oct-25 16:33N 39°27' W 000°03'1211.7
2014-Oct-25 15:33N 39°37' W 000°11'3 0.3
2014-Oct-25 07:29N 39°39' W 000°13'0 0.0
2014-Oct-25 03:29N 39°39' W 000°13'0 0.0
2014-Oct-25 01:23N 39°39' W 000°13'0 0.0
2014-Oct-25 00:29N 39°39' W 000°13'0 0.0
2014-Oct-24 23:29N 39°39' W 000°13'0 0.0
2014-Oct-24 15:17N 39°39' W 000°13'0 0.0
2014-Oct-24 14:23N 39°39' W 000°13'0 0.0
2014-Oct-24 13:05N 39°39' W 000°13'0 0.0
2014-Oct-24 12:26N 39°39' W 000°13'0 0.0
2014-Oct-24 01:29N 39°39' W 000°13'4 4.6
2014-Oct-24 00:33N 39°39' W 000°07'1512.5
2014-Oct-23 23:21N 39°48' E 000°09'6911.9
2014-Oct-23 17:33N 40°44' E 001°01'1412.4
2014-Oct-23 16:27N 40°57' E 001°09'9 9.2
2014-Oct-23 15:27N 41°06' E 001°13'178 4.3
2014-Oct-21 22:16N 38°15' E 000°05'1014.1
2014-Oct-21 21:33N 38°07' W 000°02'1414.4
2014-Oct-21 20:33N 37°55' W 000°12'1414.5
2014-Oct-21 19:33N 37°43' W 000°22'1414.4
2014-Oct-21 18:33N 37°31' W 000°33'1413.7
2014-Oct-21 17:33N 37°22' W 000°46'7 6.7
2014-Oct-21 16:34N 37°18' W 000°52'8 8.2
2014-Oct-21 15:33N 37°12' W 001°00'1413.7
2014-Oct-21 14:33N 37°03' W 001°13'1613.2
2014-Oct-21 13:20N 36°53' W 001°28'1013.2
2014-Oct-21 12:33N 36°45' W 001°37'17712.2
2014-Oct-20 22:09N 36°02' W 005°10'712.0
2014-Oct-20 21:34N 36°03' W 005°18'9 9.1
2014-Oct-20 20:33N 36°10' W 005°24'0 0.2
2014-Oct-20 19:31N 36°10' W 005°25'0 0.0
2014-Oct-20 13:07N 36°10' W 005°25'0 0.0
2014-Oct-20 10:19N 36°10' W 005°25'0 0.0
2014-Oct-20 09:31N 36°10' W 005°25'3 1.1
2014-Oct-20 07:15N 36°08' W 005°26'0 0.0
2014-Oct-20 06:15N 36°08' W 005°26'0 0.0
2014-Oct-20 05:33N 36°08' W 005°26'0 0.0
2014-Oct-20 04:27N 36°08' W 005°26'0 0.0
2014-Oct-20 03:27N 36°08' W 005°26'0 0.0
2014-Oct-20 02:24N 36°08' W 005°26'0 0.0
2014-Oct-20 00:24N 36°08' W 005°26'0 0.0
2014-Oct-19 23:33N 36°08' W 005°26'0 0.0
2014-Oct-19 22:27N 36°08' W 005°26'0 0.0
2014-Oct-19 21:30N 36°08' W 005°26'0 0.0
2014-Oct-19 20:33N 36°08' W 005°26'0 0.0
2014-Oct-19 19:30N 36°08' W 005°26'0 0.2
2014-Oct-19 18:33N 36°08' W 005°26'7 6.7
2014-Oct-19 17:33N 36°02' W 005°23'8512.0
2014-Oct-19 10:27N 36°05' W 007°08'1112.3
2014-Oct-19 09:33N 36°09' W 007°21'1212.0
2014-Oct-19 08:33N 36°12' W 007°35'1212.3
2014-Oct-19 07:33N 36°15' W 007°50'1413.2
2014-Oct-19 06:32N 36°19' W 008°06'1413.7
2014-Oct-19 05:31N 36°22' W 008°23'1413.8
2014-Oct-19 04:32N 36°26' W 008°39'1413.9
2014-Oct-19 03:33N 36°29' W 008°56'1514.0
2014-Oct-19 02:30N 36°33' W 009°13'1313.9
2014-Oct-19 01:33N 36°41' W 009°26'1814.0
2014-Oct-19 00:16N 36°58' W 009°36'1013.8
2014-Oct-18 23:33N 37°07' W 009°35'1413.5
2014-Oct-18 22:32N 37°21' W 009°33'1312.9
2014-Oct-18 21:33N 37°33' W 009°31'1212.5
2014-Oct-18 20:33N 37°46' W 009°30'1211.7
2014-Oct-18 19:33N 37°58' W 009°29'1212.0
2014-Oct-18 18:33N 38°10' W 009°26'1212.2
2014-Oct-18 17:33N 38°22' W 009°25'1211.7
2014-Oct-18 16:33N 38°33' W 009°24'13 9.4
2014-Oct-18 15:08N 38°42' W 009°10'0 0.0
2014-Oct-17 08:29N 38°42' W 009°10'5 5.3
2014-Oct-17 07:32N 38°41' W 009°16'60 9.7
2014-Oct-17 01:19N 39°39' W 009°39'  

Dump ship's entire track history